Regional Weather Roundup
Issued by NWS

Home | Current Version | Previous Version | Graphics & Text | Print | Product List | Glossary On
Versions: 1 2 3 4 5 6 7 8 9 10 11 12 13 14 15 16 17 18 19 20 21 22 23 24 25 26 27 28 29 30 31 32 33 34 35 36 37 38 39 40 41 42 43 44 45 46 47 48 49 50
000
ASUS45 KBOU 251707
RWRCO

WEATHER ROUNDUP FOR COLORADO
NATIONAL WEATHER SERVICE DENVER/BOULDER CO
1000 AM MST SUN JAN 25 2015

NOTE: "FAIR" INDICATES FEW OR NO CLOUDS BELOW 12000 FEET WITH NO
SIGNIFICANT WEATHER AND/OR OBSTRUCTIONS TO VISIBILITY.

COZ001>005-013-030-031-251800-
...NORTHWEST COLORADO...

CITY           SKY/WX    TMP DP  RH WIND       PRES   REMARKS
CRAIG          MOSUNNY   25  17  72 CALM      30.39S
HAYDEN         CLOUDY    28  19  69 E6        30.38S WCI  22
MEEKER         SUNNY     22  15  75 CALM      30.39S
MOUNT WERNER   NOT AVBL
STEAMBOAT SPGS CLOUDY    29  22  74 CALM      30.38R
WALDEN         CLOUDY    32  27  80 SW7       30.32R WCI  26
$$

COZ006>008-011-251800-
...WEST CENTRAL VALLEYS...

CITY           SKY/WX    TMP DP  RH WIND       PRES   REMARKS
GRAND JUNCTION SUNNY     35  17  47 S3        30.40R
MONTROSE       SUNNY     34  18  52 CALM      30.42S
EAGLE          PTSUNNY   27  21  80 CALM      30.42F
RIFLE          MOSUNNY   29  20  69 CALM      30.42F
DELTA          NOT AVBL
NUCLA          SUNNY     34  19  55 CALM      30.42R
$$

COZ017>023-064>068-251800-
...SOUTHWEST COLORADO...

CITY           SKY/WX    TMP DP  RH WIND       PRES   REMARKS
DURANGO        SUNNY     29  19  66 CALM      30.33S
CORTEZ         SUNNY     34  21  59 CALM      30.36R
PAGOSA SPRINGS SUNNY     32  17  54 CALM      30.32F
TELLURIDE      SUNNY     33  17  51 CALM      30.41R
WOLF CREEK PAS NOT AVBL
$$

COZ009-010-012-014-032>034-037-058>063-251800-
...CENTRAL COLORADO...

CITY           SKY/WX    TMP DP  RH WIND       PRES   REMARKS
ASPEN          CLOUDY    32  21  64 S3        30.39S
BUENA VISTA    SUNNY     41  21  44 NW25G33   30.29S
COPPER MTN     CLOUDY    25  19  80 W32       30.38F HAZE    WCI   7
BERTHOUD PASS  NOT AVBL
COTTONWOOD PAS SUNNY     36  19  51 W20G41    30.31S
GUNNISON       MOSUNNY    1 -18  39 CALM      30.48R
KREMMLING      CLOUDY    36  25  64 W5        30.37R
LEADVILLE      CLOUDY    30  19  63 N13G18    30.36R WCI  20
MONARCH PASS   PTSUNNY   19  16  86 MISG      30.48R
SALIDA         SUNNY     45  21  38 N13       30.36S
SUNLIGHT       PTSUNNY   30  27  86 N3          N/A
WILKERSON PASS SUNNY     30  18  59 SW5       30.33R WCI  25
$$

COZ069>075-251800-
...SAN LUIS VALLEY/SANGRE DE CRISTO MOUNTAINS...

CITY           SKY/WX    TMP DP  RH WIND       PRES   REMARKS
ALAMOSA        MOSUNNY   31  16  54 S3        30.33R
LA VETA PASS   NOT AVBL
SAGUACHE       MOSUNNY   37  23  56 NW10      30.34R
$$

COZ035-036-038>040-251800-
...NORTHERN COLORADO FRONT RANGE...

CITY           SKY/WX    TMP DP  RH WIND       PRES   REMARKS
DENVER INTL AP PTSUNNY   46  28  49 SW9       30.17R
DMNS CITY PARK   N/A     49  24  37 S5        30.17R
AURORA         MOSUNNY   50  25  38 NW12      30.18S
FRONT RANGE AP NOT AVBL
ERIE MUNI ARPT SUNNY     50  25  38 CALM      30.16R
BOULDER MUN AP SUNNY     52  30  43 E5        30.14R
CENTENNIAL     MOSUNNY   50  25  37 N6        30.18S
BROOMFIELD     MOSUNNY   54  25  32 W14G22    30.17S
FORT COLLINS   MOSUNNY   39  28  65 CALM      30.18R
LONGMONT       MOSUNNY   46  30  55 E5        30.17R
$$

COZ041-046-047-076>085-087-088-251800-
...PIKES PEAK/PALMER DIVIDE AND SOUTHERN FOOTHILLS...

CITY           SKY/WX    TMP DP  RH WIND       PRES   REMARKS
COLO. SPRINGS  MOSUNNY   38  27  64 CALM      30.21R
A. F. ACADEMY  SUNNY     38  25  59 S7        30.19S
ELLICOTT       SUNNY    N/A N/A N/A W5        30.19S
FALCON         SUNNY     43  24  48 W6        30.21S
FORT CARSON    SUNNY     38  28  67 VRB1      30.19R
LIMON          CLOUDY    42  29  59 NW7       30.18S
MONUMENT HILL  SUNNY     41  25  52 NW10      30.19S
TRINIDAD       SUNNY     40  26  57 SW7       30.23R
$$

COZ042>045-048>051-090-091-251800-
...NORTHEAST COLORADO...

CITY           SKY/WX    TMP DP  RH WIND       PRES   REMARKS
GREELEY ARPT   CLOUDY    34  27  75 E3        30.17R
AKRON          CLOUDY    39  29  67 W7        30.16R
BURLINGTON     SUNNY     45  29  53 NW23G30   30.13S
WRAY           PTSUNNY   51  28  40 NW17G29   30.14R
STERLING       CLOUDY    43  34  70 CALM      30.15R
HOLYOKE        SUNNY     52  28  40 NW28G33   30.12R
FORT MORGAN    CLOUDY    41  30  65 W15       30.17R
$$

COZ086-089-092>099-251800-
...SOUTHEAST COLORADO...

CITY           SKY/WX    TMP DP  RH WIND       PRES   REMARKS
PUEBLO         SUNNY     38  28  67 W3        30.21R
LA JUNTA       SUNNY     43  31  62 W9        30.21R
LAMAR          SUNNY     43  30  60 W10       30.19R
SPRINGFIELD      N/A     46  28  49 NW15      30.20R
$$



USA.gov is the U.S. government's official web portal to all federal, state and local government web resources and services.